Regional Weather Roundup
Issued by NWS

Home | Current Version | Previous Version | Text Only | Print | Product List | Glossary Off
Versions: 1 2 3 4 5 6 7 8 9 10 11 12 13 14 15 16 17 18 19 20 21 22 23 24 25 26 27 28 29 30 31 32 33 34 35 36 37 38 39 40 41 42 43 44 45 46 47 48 49 50

000
ASUS43 KBIS 231920
RWRND

NORTH DAKOTA REGIONAL WEATHER ROUNDUP
NATIONAL WEATHER SERVICE BISMARCK ND
200 PM CDT THU OCT 23 2014

NOTE: "FAIR" INDICATES FEW OR NO CLOUDS BELOW 12,000 FEET WITH NO
SIGNIFICANT WEATHER AND/OR OBSTRUCTIONS TO VISIBILITY.


NDZ001>003-009>011-017-232000-
NORTHWEST NORTH DAKOTA

CITY           SKY/WX    TMP DP  RH WIND       PRES   REMARKS
WILLISTON      PTSUNNY   59  33  37 SW12      29.78F
MINOT          PTSUNNY   66  32  28 SW8       29.78F
MINOT AFB      MOSUNNY   68  35  29 SW10      29.77F
$$

NDZ018>021-031>035-040>046-232000-
SOUTHWEST NORTH DAKOTA

CITY           SKY/WX    TMP DP  RH WIND       PRES   REMARKS
BISMARCK       SUNNY     72  33  24 SW10      29.85F
DICKINSON      PTSUNNY   68  26  20 SW14      29.82F
GARRISON         N/A     64  39  39 S9        29.81F
HETTINGER ARPT PTSUNNY   67  27  22 SW12      29.88F
$$

NDZ004>008-012>016-024-026-027-054-232000-
NORTHEAST NORTH DAKOTA

CITY           SKY/WX    TMP DP  RH WIND       PRES   REMARKS
GRAND FORKS    MOSUNNY   69  36  29 SW12      29.82F
GRND FRKS AFB  SUNNY     69  39  33 SW13      29.82F
DEVILS LAKE    MOSUNNY   66  37  34 SW12      29.80S
$$

NDZ022-023-025-028>030-036>039-047>053-232000-
SOUTHEAST NORTH DAKOTA

CITY           SKY/WX    TMP DP  RH WIND       PRES   REMARKS
FARGO          SUNNY     67  45  45 S12       29.87F
JAMESTOWN      SUNNY     69  36  29 SW16      29.84F
$$




USA.gov is the U.S. government's official web portal to all federal, state and local government web resources and services.